sat.trackr.live / text

‹ back to catalog

STARLINK-6125

NORAD 57114 · 2023-090P

PAYLOAD ACTIVE UNKNOWN

§ Identity

Operator
Country
US
Launch date
2023-06-23
Launch site
AFETR
Launch vehicle
Mass (kg)
RCS (m²)

Purposes: comms

External: N2YO · Heavens-Above · Gunter

§ Orbital elements

Epoch: 2026-05-25T04:19:26.302656Z

Period
94.32 min
Inclination
43.0013°
Eccentricity
0.0002244
Mean motion
15.26742875 rev/d
Perigee alt
484.0 km
Apogee alt
487.1 km
Semi-major
6,863.7 km
B*
2.2010e-5
RAAN
209.3249°
Arg perigee
320.2403°
Mean anomaly
39.8283°
Rev number
16,203

§ Raw data

STARLINK-61251 57114U 23090P   26145.18016554  .00000330  00000+0  22010-4 0  99942 57114  43.0013 209.3249 0002244 320.2403  39.8283 15.26742875162038

JSON: /api/v1/satellites/57114 · /tle

For live sub-satellite position, see the globe view (requires WebGL).

§ Visibility from observer

Set your observer location to see the next 7 days of passes ≥ 10°. The values pass through the URL so the page stays shareable.

No JS? Fill the form by hand. The geolocation button needs JavaScript.